owner,sensor,date,latitude,longitude,vertical_datum,direction_of_sea_water_velocity,sea_water_speed,upward_sea_water_velocity,qcFlag 
TABS,ioos:station:wmo:42051:1,2008-08-01T00:00:00Z,29.6350,-93.6417,2.0,97.19398899,20.60218435,-99999.0,'11111222,11111222,99999999' 
TABS,ioos:station:wmo:42051:1,2008-08-01T00:30:00Z,29.6350,-93.6417,2.0,92.25666924,23.61831704,-99999.0,'11111222,11111222,99999999' 
TABS,ioos:station:wmo:42051:1,2008-08-01T01:00:00Z,29.6350,-93.6417,2.0,86.46220233,26.90126577,-99999.0,'11111222,11111222,99999999' 
TABS,ioos:station:wmo:42051:1,2008-08-01T01:30:00Z,29.6350,-93.6417,2.0,81.44944401,27.17201686,-99999.0,'11111222,11111222,99999999' 
TABS,ioos:station:wmo:42051:1,2008-08-01T02:00:00Z,29.6350,-93.6417,2.0,77.35485319,29.37244457,-99999.0,'11111222,11111222,99999999' 
TABS,ioos:station:wmo:42051:1,2008-08-01T02:30:00Z,29.6350,-93.6417,2.0,70.2004075,28.28194654,-99999.0,'11111222,11111222,99999999' 
TABS,ioos:station:wmo:42051:1,2008-08-01T03:00:00Z,29.6350,-93.6417,2.0,65.16233014,26.85396246,-99999.0,'11111222,11111222,99999999' 
TABS,ioos:station:wmo:42051:1,2008-08-01T03:30:00Z,29.6350,-93.6417,2.0,62.71696912,28.90568456,-99999.0,'11111222,11111222,99999999' 
TABS,ioos:station:wmo:42051:1,2008-08-01T04:00:00Z,29.6350,-93.6417,2.0,56.84739663,29.27559051,-99999.0,'11111222,11111222,99999999' 
TABS,ioos:station:wmo:42051:1,2008-08-01T04:30:00Z,29.6350,-93.6417,2.0,51.11348054,27.22286172,-99999.0,'11111222,11111222,99999999' 
TABS,ioos:station:wmo:42051:1,2008-08-01T05:00:00Z,29.6350,-93.6417,2.0,55.27360762,25.45380915,-99999.0,'11111222,11111222,99999999' 
TABS,ioos:station:wmo:42051:1,2008-08-01T05:30:00Z,29.6350,-93.6417,2.0,59.54993074,26.40155298,-99999.0,'11111222,11111222,99999999' 
TABS,ioos:station:wmo:42051:1,2008-08-01T06:00:00Z,29.6350,-93.6417,2.0,59.24329684,25.63577578,-99999.0,'11111222,11111222,99999999' 
TABS,ioos:station:wmo:42051:1,2008-08-01T06:30:00Z,29.6350,-93.6417,2.0,54.36601613,21.4209827,-99999.0,'11111222,11111222,99999999' 
TABS,ioos:station:wmo:42051:1,2008-08-01T07:00:00Z,29.6350,-93.6417,2.0,42.81971012,21.74513509,-99999.0,'11111222,11111222,99999999' 
TABS,ioos:station:wmo:42051:1,2008-08-01T07:30:00Z,29.6350,-93.6417,2.0,49.63136877,20.84285009,-99999.0,'11111222,11111222,99999999' 
TABS,ioos:station:wmo:42051:1,2008-08-01T08:00:00Z,29.6350,-93.6417,2.0,53.6400044,20.00479193,-99999.0,'11111222,11111222,99999999' 
TABS,ioos:station:wmo:42051:1,2008-08-01T08:30:00Z,29.6350,-93.6417,2.0,47.28035615,15.63944372,-99999.0,'11111222,11111222,99999999' 
TABS,ioos:station:wmo:42051:1,2008-08-01T09:00:00Z,29.6350,-93.6417,2.0,61.99088879,10.11471206,-99999.0,'11111222,11111222,99999999' 
TABS,ioos:station:wmo:42051:1,2008-08-01T09:30:00Z,29.6350,-93.6417,2.0,55.67902745,13.85170387,-99999.0,'11111222,11111222,99999999' 
TABS,ioos:station:wmo:42051:1,2008-08-01T10:00:00Z,29.6350,-93.6417,2.0,87.74603131,15.00160658,-99999.0,'11111222,11111222,99999999' 
TABS,ioos:station:wmo:42051:1,2008-08-01T10:30:00Z,29.6350,-93.6417,2.0,79.84354173,15.19815778,-99999.0,'11111222,11111222,99999999' 
TABS,ioos:station:wmo:42051:1,2008-08-01T11:00:00Z,29.6350,-93.6417,2.0,84.31509031,15.54646262,-99999.0,'11111222,11111222,99999999' 
TABS,ioos:station:wmo:42051:1,2008-08-01T11:30:00Z,29.6350,-93.6417,2.0,83.47199538,15.83265297,-99999.0,'11111222,11111222,99999999' 
TABS,ioos:station:wmo:42051:1,2008-08-01T12:00:00Z,29.6350,-93.6417,2.0,80.44355837,18.00993337,-99999.0,'11111222,11111222,99999999' 
TABS,ioos:station:wmo:42051:1,2008-08-01T12:30:00Z,29.6350,-93.6417,2.0,86.22621607,20.81513392,-99999.0,'11111222,11111222,99999999' 
TABS,ioos:station:wmo:42051:1,2008-08-01T13:00:00Z,29.6350,-93.6417,2.0,88.96908423,19.45314885,-99999.0,'11111222,11111222,99999999' 
TABS,ioos:station:wmo:42051:1,2008-08-01T13:30:00Z,29.6350,-93.6417,2.0,78.9775891,21.49656019,-99999.0,'11111222,11111222,99999999' 
TABS,ioos:station:wmo:42051:1,2008-08-01T14:00:00Z,29.6350,-93.6417,2.0,84.0155314,19.56663487,-99999.0,'11111222,11111222,99999999' 
TABS,ioos:station:wmo:42051:1,2008-08-01T14:30:00Z,29.6350,-93.6417,2.0,89.97916522,27.50000182,-99999.0,'11111222,11111222,99999999' 
TABS,ioos:station:wmo:42051:1,2008-08-01T15:00:00Z,29.6350,-93.6417,2.0,93.91284495,30.48105149,-99999.0,'11111222,11111222,99999999' 
TABS,ioos:station:wmo:42051:1,2008-08-01T15:30:00Z,29.6350,-93.6417,2.0,89.78137958,34.07024802,-99999.0,'11111222,11111222,99999999' 
TABS,ioos:station:wmo:42051:1,2008-08-01T16:00:00Z,29.6350,-93.6417,2.0,85.59371811,23.16847859,-99999.0,'11111222,11111222,99999999' 
TABS,ioos:station:wmo:42051:1,2008-08-01T16:30:00Z,29.6350,-93.6417,2.0,91.0287045,30.63493757,-99999.0,'11111222,11111222,99999999' 
TABS,ioos:station:wmo:42051:1,2008-08-01T17:00:00Z,29.6350,-93.6417,2.0,93.55247696,31.47047187,-99999.0,'11111222,11111222,99999999' 
TABS,ioos:station:wmo:42051:1,2008-08-01T17:30:00Z,29.6350,-93.6417,2.0,94.34755183,31.79147842,-99999.0,'11111222,11111222,99999999' 
TABS,ioos:station:wmo:42051:1,2008-08-01T18:00:00Z,29.6350,-93.6417,2.0,95.34478816,25.87248925,-99999.0,'11111222,11111222,99999999' 
TABS,ioos:station:wmo:42051:1,2008-08-01T18:30:00Z,29.6350,-93.6417,2.0,93.78327284,29.70473363,-99999.0,'11111222,11111222,99999999' 
TABS,ioos:station:wmo:42051:1,2008-08-01T19:00:00Z,29.6350,-93.6417,2.0,89.77582516,30.67023476,-99999.0,'11111222,11111222,99999999' 
TABS,ioos:station:wmo:42051:1,2008-08-01T19:30:00Z,29.6350,-93.6417,2.0,79.22104847,25.18435427,-99999.0,'11111222,11111222,99999999' 
TABS,ioos:station:wmo:42051:1,2008-08-01T20:00:00Z,29.6350,-93.6417,2.0,88.55996913,27.05854579,-99999.0,'11111222,11111222,99999999' 
TABS,ioos:station:wmo:42051:1,2008-08-01T20:30:00Z,29.6350,-93.6417,2.0,89.10395348,30.69375344,-99999.0,'11111222,11111222,99999999' 
TABS,ioos:station:wmo:42051:1,2008-08-01T21:00:00Z,29.6350,-93.6417,2.0,92.17956253,31.55282713,-99999.0,'11111222,11111222,99999999' 
TABS,ioos:station:wmo:42051:1,2008-08-01T21:30:00Z,29.6350,-93.6417,2.0,85.55062937,28.61624189,-99999.0,'11111222,11111222,99999999' 
TABS,ioos:station:wmo:42051:1,2008-08-01T22:00:00Z,29.6350,-93.6417,2.0,92.7290268,30.03406233,-99999.0,'11111222,11111222,99999999' 
TABS,ioos:station:wmo:42051:1,2008-08-01T22:30:00Z,29.6350,-93.6417,2.0,85.65744624,32.09213143,-99999.0,'11111222,11111222,99999999' 
TABS,ioos:station:wmo:42051:1,2008-08-01T23:00:00Z,29.6350,-93.6417,2.0,81.7799621,29.7253915,-99999.0,'11111222,11111222,99999999' 
TABS,ioos:station:wmo:42051:1,2008-08-01T23:30:00Z,29.6350,-93.6417,2.0,86.51946672,30.96711966,-99999.0,'11111222,11111222,99999999' 
TABS,ioos:station:wmo:42051:1,2008-08-02T00:00:00Z,29.6350,-93.6417,2.0,84.28417896,32.63224479,-99999.0,'11111222,11111222,99999999' 
TABS,ioos:station:wmo:42051:1,2008-08-02T00:30:00Z,29.6350,-93.6417,2.0,84.3361315,26.8510875,-99999.0,'11111222,11111222,99999999' 
TABS,ioos:station:wmo:42051:1,2008-08-02T01:00:00Z,29.6350,-93.6417,2.0,78.64250624,28.33486898,-99999.0,'11111222,11111222,99999999' 
TABS,ioos:station:wmo:42051:1,2008-08-02T01:30:00Z,29.6350,-93.6417,2.0,73.79559069,20.96280993,-99999.0,'11111222,11111222,99999999' 
TABS,ioos:station:wmo:42051:1,2008-08-02T02:00:00Z,29.6350,-93.6417,2.0,68.2544743,19.05606465,-99999.0,'11111222,11111222,99999999' 
TABS,ioos:station:wmo:42051:1,2008-08-02T02:30:00Z,29.6350,-93.6417,2.0,53.46776567,19.68834173,-99999.0,'11111222,11111222,99999999' 
TABS,ioos:station:wmo:42051:1,2008-08-02T03:00:00Z,29.6350,-93.6417,2.0,48.56933024,21.35361796,-99999.0,'11111222,11111222,99999999' 
TABS,ioos:station:wmo:42051:1,2008-08-02T03:30:00Z,29.6350,-93.6417,2.0,63.00836377,18.61801815,-99999.0,'11111222,11111222,99999999' 
TABS,ioos:station:wmo:42051:1,2008-08-02T04:00:00Z,29.6350,-93.6417,2.0,67.69300824,16.20254918,-99999.0,'11111222,11111222,99999999' 
TABS,ioos:station:wmo:42051:1,2008-08-02T04:30:00Z,29.6350,-93.6417,2.0,54.31282726,18.70198385,-99999.0,'11111222,11111222,99999999' 
TABS,ioos:station:wmo:42051:1,2008-08-02T05:00:00Z,29.6350,-93.6417,2.0,58.07366922,23.06981578,-99999.0,'11111222,11111222,99999999' 
TABS,ioos:station:wmo:42051:1,2008-08-02T05:30:00Z,29.6350,-93.6417,2.0,55.05074221,23.09497348,-99999.0,'11111222,11111222,99999999' 
TABS,ioos:station:wmo:42051:1,2008-08-02T06:00:00Z,29.6350,-93.6417,2.0,52.49756632,19.56319248,-99999.0,'11111222,11111222,99999999' 
TABS,ioos:station:wmo:42051:1,2008-08-02T06:30:00Z,29.6350,-93.6417,2.0,48.49026272,23.46289411,-99999.0,'11111222,11111222,99999999' 
TABS,ioos:station:wmo:42051:1,2008-08-02T07:00:00Z,29.6350,-93.6417,2.0,55.01236795,21.79976147,-99999.0,'11111222,11111222,99999999' 
TABS,ioos:station:wmo:42051:1,2008-08-02T07:30:00Z,29.6350,-93.6417,2.0,50.55545938,18.69887697,-99999.0,'11111222,11111222,99999999' 
TABS,ioos:station:wmo:42051:1,2008-08-02T08:00:00Z,29.6350,-93.6417,2.0,47.0585674,17.71738694,-99999.0,'11111222,11111222,99999999' 
TABS,ioos:station:wmo:42051:1,2008-08-02T08:30:00Z,29.6350,-93.6417,2.0,54.03222553,14.86384203,-99999.0,'11111222,11111222,99999999' 
TABS,ioos:station:wmo:42051:1,2008-08-02T09:00:00Z,29.6350,-93.6417,2.0,53.19832329,20.18201427,-99999.0,'11111222,11111222,99999999' 
TABS,ioos:station:wmo:42051:1,2008-08-02T09:30:00Z,29.6350,-93.6417,2.0,38.35553002,17.0497302,-99999.0,'11111222,11111222,99999999' 
TABS,ioos:station:wmo:42051:1,2008-08-02T10:00:00Z,29.6350,-93.6417,2.0,37.3011554,14.88442139,-99999.0,'11111222,11111222,99999999' 
TABS,ioos:station:wmo:42051:1,2008-08-02T10:30:00Z,29.6350,-93.6417,2.0,55.69031851,11.28326194,-99999.0,'11111222,11111222,99999999' 
TABS,ioos:station:wmo:42051:1,2008-08-02T11:00:00Z,29.6350,-93.6417,2.0,62.83507847,11.95914713,-99999.0,'11111222,11111222,99999999' 
TABS,ioos:station:wmo:42051:1,2008-08-02T11:30:00Z,29.6350,-93.6417,2.0,68.79135855,14.8991342,-99999.0,'11111222,11111222,99999999' 
TABS,ioos:station:wmo:42051:1,2008-08-02T12:00:00Z,29.6350,-93.6417,2.0,74.74491697,13.34005247,-99999.0,'11111222,11111222,99999999' 
TABS,ioos:station:wmo:42051:1,2008-08-02T12:30:00Z,29.6350,-93.6417,2.0,81.78189075,17.48959977,-99999.0,'11111222,11111222,99999999' 
TABS,ioos:station:wmo:42051:1,2008-08-02T13:00:00Z,29.6350,-93.6417,2.0,84.28942022,18.5922699,-99999.0,'11111222,11111222,99999999' 
TABS,ioos:station:wmo:42051:1,2008-08-02T13:30:00Z,29.6350,-93.6417,2.0,77.52925349,17.134261,-99999.0,'11111222,11111222,99999999' 
TABS,ioos:station:wmo:42051:1,2008-08-02T14:00:00Z,29.6350,-93.6417,2.0,76.53741502,18.16925425,-99999.0,'11111222,11111222,99999999' 
TABS,ioos:station:wmo:42051:1,2008-08-02T14:30:00Z,29.6350,-93.6417,2.0,70.11984285,16.1738709,-99999.0,'11111222,11111222,99999999' 
TABS,ioos:station:wmo:42051:1,2008-08-02T15:00:00Z,29.6350,-93.6417,2.0,108.8359241,28.46435842,-99999.0,'11111222,11111222,99999999' 
TABS,ioos:station:wmo:42051:1,2008-08-02T15:30:00Z,29.6350,-93.6417,2.0,105.2878796,30.64441221,-99999.0,'11111222,11111222,99999999' 
TABS,ioos:station:wmo:42051:1,2008-08-02T16:00:00Z,29.6350,-93.6417,2.0,97.14833328,30.4567316,-99999.0,'11111222,11111222,99999999' 
TABS,ioos:station:wmo:42051:1,2008-08-02T16:30:00Z,29.6350,-93.6417,2.0,97.72875194,30.48694967,-99999.0,'11111222,11111222,99999999' 
TABS,ioos:station:wmo:42051:1,2008-08-02T17:00:00Z,29.6350,-93.6417,2.0,91.53318396,31.02110572,-99999.0,'11111222,11111222,99999999' 
TABS,ioos:station:wmo:42051:1,2008-08-02T17:30:00Z,29.6350,-93.6417,2.0,89.84329435,29.2501094,-99999.0,'11111222,11111222,99999999' 
TABS,ioos:station:wmo:42051:1,2008-08-02T18:00:00Z,29.6350,-93.6417,2.0,93.86896616,26.3801213,-99999.0,'11111222,11111222,99999999' 
TABS,ioos:station:wmo:42051:1,2008-08-02T18:30:00Z,29.6350,-93.6417,2.0,83.17052315,27.4145217,-99999.0,'11111222,11111222,99999999' 
TABS,ioos:station:wmo:42051:1,2008-08-02T19:00:00Z,29.6350,-93.6417,2.0,84.4068903,30.57556704,-99999.0,'11111222,11111222,99999999' 
TABS,ioos:station:wmo:42051:1,2008-08-02T19:30:00Z,29.6350,-93.6417,2.0,87.3771397,28.18953174,-99999.0,'11111222,11111222,99999999' 
TABS,ioos:station:wmo:42051:1,2008-08-02T20:00:00Z,29.6350,-93.6417,2.0,89.78603385,24.10016805,-99999.0,'11111222,11111222,99999999' 
TABS,ioos:station:wmo:42051:1,2008-08-02T20:30:00Z,29.6350,-93.6417,2.0,88.14332571,20.37069464,-99999.0,'11111222,11111222,99999999' 
TABS,ioos:station:wmo:42051:1,2008-08-02T21:00:00Z,29.6350,-93.6417,2.0,77.73752256,21.46983931,-99999.0,'11111222,11111222,99999999' 
TABS,ioos:station:wmo:42051:1,2008-08-02T21:30:00Z,29.6350,-93.6417,2.0,84.68978588,21.5022836,-99999.0,'11111222,11111222,99999999' 
TABS,ioos:station:wmo:42051:1,2008-08-02T22:00:00Z,29.6350,-93.6417,2.0,89.13906466,21.96247937,-99999.0,'11111222,11111222,99999999' 
TABS,ioos:station:wmo:42051:1,2008-08-02T22:30:00Z,29.6350,-93.6417,2.0,89.34775535,21.961423,-99999.0,'11111222,11111222,99999999' 
TABS,ioos:station:wmo:42051:1,2008-08-02T23:00:00Z,29.6350,-93.6417,2.0,84.0938727,24.78154555,-99999.0,'11111222,11111222,99999999' 
TABS,ioos:station:wmo:42051:1,2008-08-02T23:30:00Z,29.6350,-93.6417,2.0,82.22120902,28.37107153,-99999.0,'11111222,11111222,99999999' 
TABS,ioos:station:wmo:42051:1,2008-08-03T00:00:00Z,29.6350,-93.6417,2.0,90.54346666,27.4112331,-99999.0,'11111222,11111222,99999999' 
TABS,ioos:station:wmo:42051:1,2008-08-03T00:30:00Z,29.6350,-93.6417,2.0,86.72951972,21.7353997,-99999.0,'11111222,11111222,99999999' 
TABS,ioos:station:wmo:42051:1,2008-08-03T01:00:00Z,29.6350,-93.6417,2.0,86.172972,23.5224531,-99999.0,'11111222,11111222,99999999' 
TABS,ioos:station:wmo:42051:1,2008-08-03T01:30:00Z,29.6350,-93.6417,2.0,75.93105647,21.22672137,-99999.0,'11111222,11111222,99999999' 
TABS,ioos:station:wmo:42051:1,2008-08-03T02:00:00Z,29.6350,-93.6417,2.0,72.68839437,22.58300246,-99999.0,'11111222,11111222,99999999' 
TABS,ioos:station:wmo:42051:1,2008-08-03T02:30:00Z,29.6350,-93.6417,2.0,78.7055556,21.80223154,-99999.0,'11111222,11111222,99999999' 
TABS,ioos:station:wmo:42051:1,2008-08-03T03:00:00Z,29.6350,-93.6417,2.0,75.90624051,24.14685901,-99999.0,'11111222,11111222,99999999' 
TABS,ioos:station:wmo:42051:1,2008-08-03T03:30:00Z,29.6350,-93.6417,2.0,76.349293,24.87259134,-99999.0,'11111222,11111222,99999999' 
TABS,ioos:station:wmo:42051:1,2008-08-03T04:00:00Z,29.6350,-93.6417,2.0,76.49977434,24.63057044,-99999.0,'11111222,11111222,99999999' 
TABS,ioos:station:wmo:42051:1,2008-08-03T04:30:00Z,29.6350,-93.6417,2.0,74.7290423,25.32417422,-99999.0,'11111222,11111222,99999999' 
TABS,ioos:station:wmo:42051:1,2008-08-03T05:00:00Z,29.6350,-93.6417,2.0,67.96962533,28.33919194,-99999.0,'11111222,11111222,99999999' 
TABS,ioos:station:wmo:42051:1,2008-08-03T05:30:00Z,29.6350,-93.6417,2.0,70.66145241,25.06416765,-99999.0,'11111222,11111222,99999999' 
TABS,ioos:station:wmo:42051:1,2008-08-03T06:00:00Z,29.6350,-93.6417,2.0,64.08559795,18.51136408,-99999.0,'11111222,11111222,99999999' 
TABS,ioos:station:wmo:42051:1,2008-08-03T06:30:00Z,29.6350,-93.6417,2.0,71.1372772,22.02271555,-99999.0,'11111222,11111222,99999999' 
TABS,ioos:station:wmo:42051:1,2008-08-03T07:00:00Z,29.6350,-93.6417,2.0,73.5255687,22.46215706,-99999.0,'11111222,11111222,99999999' 
TABS,ioos:station:wmo:42051:1,2008-08-03T07:30:00Z,29.6350,-93.6417,2.0,69.31812952,20.24465609,-99999.0,'11111222,11111222,99999999' 
TABS,ioos:station:wmo:42051:1,2008-08-03T08:00:00Z,29.6350,-93.6417,2.0,66.74671397,21.98595916,-99999.0,'11111222,11111222,99999999' 
TABS,ioos:station:wmo:42051:1,2008-08-03T08:30:00Z,29.6350,-93.6417,2.0,68.75963589,17.63818868,-99999.0,'11111222,11111222,99999999' 
TABS,ioos:station:wmo:42051:1,2008-08-03T09:00:00Z,29.6350,-93.6417,2.0,59.10314591,17.64378644,-99999.0,'11111222,11111222,99999999' 
TABS,ioos:station:wmo:42051:1,2008-08-03T09:30:00Z,29.6350,-93.6417,2.0,60.49640291,15.61487112,-99999.0,'11111222,11111222,99999999' 
TABS,ioos:station:wmo:42051:1,2008-08-03T10:00:00Z,29.6350,-93.6417,2.0,56.09438994,13.26574913,-99999.0,'11111222,11111222,99999999' 
TABS,ioos:station:wmo:42051:1,2008-08-03T10:30:00Z,29.6350,-93.6417,2.0,67.66844823,12.84323947,-99999.0,'11111222,11111222,99999999' 
TABS,ioos:station:wmo:42051:1,2008-08-03T11:00:00Z,29.6350,-93.6417,2.0,80.53769992,6.204417781,-99999.0,'11133222,11111222,99999999' 
TABS,ioos:station:wmo:42051:1,2008-08-03T11:30:00Z,29.6350,-93.6417,2.0,58.80497536,3.822734623,-99999.0,'11133222,11111222,99999999' 
TABS,ioos:station:wmo:42051:1,2008-08-03T12:00:00Z,29.6350,-93.6417,2.0,52.93968006,4.8120266,-99999.0,'11133222,11111222,99999999' 
TABS,ioos:station:wmo:42051:1,2008-08-03T12:30:00Z,29.6350,-93.6417,2.0,80.17162147,13.12259502,-99999.0,'11111222,11111222,99999999' 
TABS,ioos:station:wmo:42051:1,2008-08-03T13:00:00Z,29.6350,-93.6417,2.0,88.6348723,11.33321667,-99999.0,'11111222,11111222,99999999' 
TABS,ioos:station:wmo:42051:1,2008-08-03T13:30:00Z,29.6350,-93.6417,2.0,66.55612276,13.79911954,-99999.0,'11111222,11111222,99999999' 
TABS,ioos:station:wmo:42051:1,2008-08-03T14:00:00Z,29.6350,-93.6417,2.0,75.88849946,14.7655816,-99999.0,'11111222,11111222,99999999' 
TABS,ioos:station:wmo:42051:1,2008-08-03T14:30:00Z,29.6350,-93.6417,2.0,69.52947881,12.55267701,-99999.0,'11111222,11111222,99999999' 
TABS,ioos:station:wmo:42051:1,2008-08-03T15:00:00Z,29.6350,-93.6417,2.0,77.98102565,12.67791781,-99999.0,'11111222,11111222,99999999' 
TABS,ioos:station:wmo:42051:1,2008-08-03T15:30:00Z,29.6350,-93.6417,2.0,86.99186752,12.95785476,-99999.0,'11111222,11111222,99999999' 
TABS,ioos:station:wmo:42051:1,2008-08-03T16:00:00Z,29.6350,-93.6417,2.0,88.94300469,10.84184486,-99999.0,'11111222,11111222,99999999' 
TABS,ioos:station:wmo:42051:1,2008-08-03T16:30:00Z,29.6350,-93.6417,2.0,90.9062962,8.851107275,-99999.0,'11133222,11111222,99999999' 
TABS,ioos:station:wmo:42051:1,2008-08-03T17:00:00Z,29.6350,-93.6417,2.0,100.2416718,5.68051054,-99999.0,'11133222,11111222,99999999' 
TABS,ioos:station:wmo:42051:1,2008-08-03T17:30:00Z,29.6350,-93.6417,2.0,90.42128392,6.800183821,-99999.0,'11133222,11111222,99999999' 
TABS,ioos:station:wmo:42051:1,2008-08-03T18:00:00Z,29.6350,-93.6417,2.0,95.98813437,5.751382443,-99999.0,'11133222,11111222,99999999' 
TABS,ioos:station:wmo:42051:1,2008-08-03T18:30:00Z,29.6350,-93.6417,2.0,113.9267925,8.161354054,-99999.0,'11133222,11111222,99999999' 
TABS,ioos:station:wmo:42051:1,2008-08-03T19:00:00Z,29.6350,-93.6417,2.0,130.4493138,9.001560976,-99999.0,'11133222,11111222,99999999' 
TABS,ioos:station:wmo:42051:1,2008-08-03T19:30:00Z,29.6350,-93.6417,2.0,169.1218507,8.584247201,-99999.0,'11133222,11111222,99999999' 
TABS,ioos:station:wmo:42051:1,2008-08-03T20:00:00Z,29.6350,-93.6417,2.0,153.1606607,9.346871134,-99999.0,'11133222,11111222,99999999' 
TABS,ioos:station:wmo:42051:1,2008-08-03T20:30:00Z,29.6350,-93.6417,2.0,137.2387079,6.878328285,-99999.0,'11133222,11111222,99999999' 
TABS,ioos:station:wmo:42051:1,2008-08-03T21:00:00Z,29.6350,-93.6417,2.0,149.5710981,7.897854139,-99999.0,'11133222,11111222,99999999' 
TABS,ioos:station:wmo:42051:1,2008-08-03T21:30:00Z,29.6350,-93.6417,2.0,152.0106165,6.477653896,-99999.0,'11133222,11111222,99999999' 
TABS,ioos:station:wmo:42051:1,2008-08-03T22:00:00Z,29.6350,-93.6417,2.0,121.8093149,2.788870739,-99999.0,'11133222,11111222,99999999' 
TABS,ioos:station:wmo:42051:1,2008-08-03T22:30:00Z,29.6350,-93.6417,2.0,121.5501223,7.205032963,-99999.0,'11133222,11111222,99999999' 
TABS,ioos:station:wmo:42051:1,2008-08-03T23:00:00Z,29.6350,-93.6417,2.0,137.9642252,6.152991143,-99999.0,'11133222,11111222,99999999' 
TABS,ioos:station:wmo:42051:1,2008-08-03T23:30:00Z,29.6350,-93.6417,2.0,146.5820795,4.085413076,-99999.0,'11133222,11111222,99999999' 
TABS,ioos:station:wmo:42051:1,2008-08-04T00:00:00Z,29.6350,-93.6417,2.0,138.5091333,8.664161818,-99999.0,'11133222,11111222,99999999' 
TABS,ioos:station:wmo:42051:1,2008-08-04T00:30:00Z,29.6350,-93.6417,2.0,187.3760263,5.374476719,-99999.0,'11133222,11111222,99999999' 
TABS,ioos:station:wmo:42051:1,2008-08-04T01:00:00Z,29.6350,-93.6417,2.0,187.9812739,7.633950485,-99999.0,'11133222,11111222,99999999' 
TABS,ioos:station:wmo:42051:1,2008-08-04T01:30:00Z,29.6350,-93.6417,2.0,181.1932762,8.641874797,-99999.0,'11133222,11111222,99999999' 
TABS,ioos:station:wmo:42051:1,2008-08-04T02:00:00Z,29.6350,-93.6417,2.0,182.1745286,6.32455532,-99999.0,'11133222,11111222,99999999' 
TABS,ioos:station:wmo:42051:1,2008-08-04T02:30:00Z,29.6350,-93.6417,2.0,194.2227172,5.209692889,-99999.0,'11133222,11111222,99999999' 
TABS,ioos:station:wmo:42051:1,2008-08-04T03:00:00Z,29.6350,-93.6417,2.0,182.1875481,4.453246007,-99999.0,'11133222,11111222,99999999' 
TABS,ioos:station:wmo:42051:1,2008-08-04T03:30:00Z,29.6350,-93.6417,2.0,200.4125877,8.429329748,-99999.0,'11133222,11111222,99999999' 
TABS,ioos:station:wmo:42051:1,2008-08-04T04:00:00Z,29.6350,-93.6417,2.0,208.6348044,5.571445055,-99999.0,'11133222,11111222,99999999' 
TABS,ioos:station:wmo:42051:1,2008-08-04T04:30:00Z,29.6350,-93.6417,2.0,241.3645642,3.714296703,-99999.0,'11133222,11111222,99999999' 
TABS,ioos:station:wmo:42051:1,2008-08-04T05:00:00Z,29.6350,-93.6417,2.0,209.168831,7.776130143,-99999.0,'11133222,11111222,99999999' 
TABS,ioos:station:wmo:42051:1,2008-08-04T05:30:00Z,29.6350,-93.6417,2.0,213.1615015,6.617854637,-99999.0,'11133222,11111222,99999999' 
TABS,ioos:station:wmo:42051:1,2008-08-04T06:00:00Z,29.6350,-93.6417,2.0,284.3006649,5.263078947,-99999.0,'11133222,11111222,99999999' 
TABS,ioos:station:wmo:42051:1,2008-08-04T06:30:00Z,29.6350,-93.6417,2.0,306.3781723,3.72613741,-99999.0,'11133222,11111222,99999999' 
TABS,ioos:station:wmo:42051:1,2008-08-04T07:00:00Z,29.6350,-93.6417,2.0,307.4010965,5.828250166,-99999.0,'11133222,11111222,99999999' 
TABS,ioos:station:wmo:42051:1,2008-08-04T07:30:00Z,29.6350,-93.6417,2.0,305.4336521,3.191002977,-99999.0,'11133222,11111222,99999999' 
TABS,ioos:station:wmo:42051:1,2008-08-04T08:00:00Z,29.6350,-93.6417,2.0,317.9740398,7.632889361,-99999.0,'11133222,11111222,99999999' 
TABS,ioos:station:wmo:42051:1,2008-08-04T08:30:00Z,29.6350,-93.6417,2.0,281.6051561,8.003605438,-99999.0,'11133222,11111222,99999999' 
TABS,ioos:station:wmo:42051:1,2008-08-04T09:00:00Z,29.6350,-93.6417,2.0,277.1514404,8.193735412,-99999.0,'11133222,11111222,99999999' 
TABS,ioos:station:wmo:42051:1,2008-08-04T09:30:00Z,29.6350,-93.6417,2.0,267.3779831,10.93144089,-99999.0,'11111222,11111222,99999999' 
TABS,ioos:station:wmo:42051:1,2008-08-04T10:00:00Z,29.6350,-93.6417,2.0,254.0740322,11.91740324,-99999.0,'11111222,11111222,99999999' 
TABS,ioos:station:wmo:42051:1,2008-08-04T10:30:00Z,29.6350,-93.6417,2.0,271.514883,12.86449377,-99999.0,'11111222,11111222,99999999' 
TABS,ioos:station:wmo:42051:1,2008-08-04T11:00:00Z,29.6350,-93.6417,2.0,272.9651019,13.14759674,-99999.0,'11111222,11111222,99999999' 
TABS,ioos:station:wmo:42051:1,2008-08-04T11:30:00Z,29.6350,-93.6417,2.0,254.1860939,11.33914459,-99999.0,'11111222,11111222,99999999' 
TABS,ioos:station:wmo:42051:1,2008-08-04T12:00:00Z,29.6350,-93.6417,2.0,255.734426,13.96046203,-99999.0,'11111222,11111222,99999999' 
TABS,ioos:station:wmo:42051:1,2008-08-04T12:30:00Z,29.6350,-93.6417,2.0,260.2439444,10.91787983,-99999.0,'11111222,11111222,99999999' 
TABS,ioos:station:wmo:42051:1,2008-08-04T13:00:00Z,29.6350,-93.6417,2.0,249.8825287,16.80526108,-99999.0,'11111222,11111222,99999999' 
TABS,ioos:station:wmo:42051:1,2008-08-04T13:30:00Z,29.6350,-93.6417,2.0,255.9547435,16.11164175,-99999.0,'11111222,11111222,99999999' 
TABS,ioos:station:wmo:42051:1,2008-08-04T14:00:00Z,29.6350,-93.6417,2.0,260.0090714,17.11959404,-99999.0,'11111222,11111222,99999999' 
TABS,ioos:station:wmo:42051:1,2008-08-04T14:30:00Z,29.6350,-93.6417,2.0,259.4112425,20.24471289,-99999.0,'11111222,11111222,99999999' 
TABS,ioos:station:wmo:42051:1,2008-08-04T15:00:00Z,29.6350,-93.6417,2.0,255.0028414,17.50625602,-99999.0,'11111222,11111222,99999999' 
TABS,ioos:station:wmo:42051:1,2008-08-04T15:30:00Z,29.6350,-93.6417,2.0,256.3411365,18.76053837,-99999.0,'11111222,11111222,99999999' 
TABS,ioos:station:wmo:42051:1,2008-08-04T16:00:00Z,29.6350,-93.6417,2.0,250.3594131,16.98835189,-99999.0,'11111222,11111222,99999999' 